Flag for U.S.A. Weather past 2 weeks in Yonkers, New York, U.S.A.

Now
72 °F

Passing clouds.


Feels Like: 75 °F
Forecast: 73 / 88 °F
Wind: 5 mph from South

Location: Teterboro Airport

Current Time: Aug 3, 2015 at 6:43:49 AM

Latest Report: Aug 3, 2015 at 5:51 AM


Visibility: 10 mi

Pressure: 29.83 "Hg

Humidity: 68%

Dew point: 61 °F

Location of YonkersLocation

Historic Weather in Yonkers — Graph

°F

Yonkers temperature yesterday

Maximum temperature yesterday: 89 °F (at 1:51 PM)
Minimum temperature yesterday: 68 °F (at 5:51 AM)
Average temperature yesterday: 79 °F

Past Weeks' High & Low Weather Summary

 TemperatureHumidityPressure
High95 °F (Jul 19, 4:51 PM)91% (Jul 31, 1:51 AM)30.02 "Hg (Jul 31, 1:51 AM)
Low65 °F (Jul 23, 3:51 AM)24% (Jul 31, 4:51 PM)29.55 "Hg (Jul 21, 5:51 PM)
Average80 °F53%29.85 "Hg
* Reported Jul 19 4:51 AM — Aug 3 4:51 AM, Yonkers, Weather by CustomWeather, © 2015

Note: Actual official high and low records may vary slightly from our data, if they occured in-between our weather recording intervals... More about our weather records

Advertising

Yonkers weather history for previous 24 hours

 ConditionsComfort  
Time TempWeatherWind HumidityBarometerVisibility
4:51 AM
Mon, Aug 3
71 °FClear.6 mph68%29.83 "Hg10 mi
3:51 AM72 °FClear.6 mph61%29.83 "Hg10 mi
2:51 AM74 °FClear.8 mph56%29.83 "Hg10 mi
1:51 AM75 °FClear.6 mph54%29.84 "Hg10 mi
12:51 AM75 °FClear.3 mph54%29.85 "Hg10 mi
11:51 PM
Sun, Aug 2
76 °FClear.3 mph56%29.85 "Hg10 mi
10:51 PM77 °FClear.3 mph54%29.85 "Hg10 mi
9:51 PM77 °FClear.No wind52%29.86 "Hg10 mi
8:51 PM81 °FSunny.No wind47%29.87 "Hg10 mi
7:51 PM82 °FSunny.7 mph44%29.85 "Hg10 mi
6:51 PM84 °FSunny.10 mph38%29.85 "Hg10 mi
5:51 PM86 °FPassing clouds.13 mph36%29.86 "Hg10 mi
4:51 PM87 °FScattered clouds.14 mph33%29.86 "Hg10 mi
3:51 PM86 °FPartly sunny.12 mph32%29.87 "Hg10 mi
2:51 PM87 °FScattered clouds.9 mph29%29.87 "Hg10 mi
1:51 PM89 °FPassing clouds.12 mph24%29.88 "Hg10 mi
12:51 PM87 °FSunny.9 mph28%29.90 "Hg10 mi
11:51 AM85 °FPassing clouds.8 mph34%29.91 "Hg10 mi
10:51 AM83 °FSunny.No wind38%29.92 "Hg10 mi
9:51 AM80 °FSunny.3 mph44%29.92 "Hg10 mi
8:51 AM78 °FSunny.No wind48%29.91 "Hg10 mi
7:51 AM73 °FSunny.No wind57%29.90 "Hg10 mi
6:51 AM68 °FClear.No wind68%29.89 "Hg10 mi
Weather by CustomWeather, © 2015

See weather overviewHow to use our weather pages